Starlink 32605

operational
NORAD ID: 61921 Int'l Des: 2024-207 Owner: SPXS Country: US Constellation: starlink
LEOCIRCULAR

Starlink 32605について

説明を読み込み中...

リアルタイム位置

3D地球を読み込み中...

次回通過

高度履歴

Altitude vs Time

uPlot chart will show altitude changes over time

軌道要素

1 61921U 24207K 25277.80473035 -.00007114 00000-0 -24911-3 0 9992
2 61921 43.0015 81.9085 0001469 269.2683 90.8000 15.27597604 50885
Epoch: Oct 4, 2025 • Age: 23 hours

現在のステータス

高度 482.9 km
速度 7.63 km/s
衛星直下点 0.33°N, 29.44°W
打ち上げ日 Nov 11, 2024
運用期間 0.8 years
タイプ internet

技術仕様

分類 Payload
質量 730.00 kg
乾燥質量 700.00 kg
総質量 730.00 kg
長さ 0.30 m
直径 4.10 m
スパン 29.00 m
形状 Box + pan
製造者 SPXS
バスタイプ Starlink V2M
フェーズステータス In Orbit
所有者/国 SPXS/US

大規模コンステレーション

Loading constellations...